[TLELIST] Archives

 

Current TLEs

July 29th 2007 PDT

HST 1 20580U 90037B 07208.58798288 +.00000289 +00000-0 +95375-5 0 09359 2 20580 028.4691 286.6642 0003986 166.6736 193.3959 15.00263782746035 ISS (ZARYA) 1 25544U 98067A 07210.49386456 .00003930 00000-0 28906-4 0 6705 2 25544 051.6326 245.2508 0009247 176.9686 324.5869 15.75953254497458 CXO 1 25867U 99040B 07207.29166667 .00000250 00000-0 00000+0 0 930 2 25867 062.0737 088.4727 6287550 283.3847 354.3138 00.37804109 2404 ____________________________________________________________________ These 2-Line ...Continue Reading

Current TLEs

July 28th 2007 PDT

HST 1 20580U 90037B 07209.25322349 .00000294 00000-0 99094-5 0 9252 2 20580 028.4691 282.3273 0003999 173.9643 186.0999 15.00263991746136 ISS (ZARYA) 1 25544U 98067A 07209.47889528 .00003936 00000-0 28956-4 0 6632 2 25544 051.6326 250.4801 0009127 173.2881 326.0326 15.75944007497299 CXO 1 25867U 99040B 07207.29166667 .00000250 00000-0 00000+0 0 930 2 25867 062.0737 088.4727 6287550 283.3847 354.3138 00.37804109 2404 ____________________________________________________________________ These 2-Line ...Continue Reading

Current TLEs

July 27th 2007 PDT

HST 1 20580U 90037B 07207.59012151 .00000291 00000-0 96928-5 0 9243 2 20580 028.4691 293.1702 0003959 157.1298 202.9467 15.00263535745882 ISS (ZARYA) 1 25544U 98067A 07208.47535880 .00004743 00000-0 34044-4 0 6564 2 25544 051.6332 255.6490 0009167 169.8241 032.2039 15.75936530497134 CXO 1 25867U 99040B 07207.29166667 .00000250 00000-0 00000+0 0 930 2 25867 062.0737 088.4727 6287550 283.3847 354.3138 00.37804109 2404 ____________________________________________________________________ These 2-Line ...Continue Reading

Current TLEs

July 26th 2007 PDT

HST 1 20580U 90037B 07206.52573572 .00000295 00000-0 10039-4 0 9235 2 20580 028.4691 300.1097 0003904 147.2277 212.8558 15.00263279745724 ISS (ZARYA) 1 25544U 98067A 07207.50530944 .00005653 00000-0 39776-4 0 6505 2 25544 051.6336 260.6465 0009235 165.7408 289.1392 15.75928534496984 CXO 1 25867U 99040B 07207.29166667 .00000250 00000-0 00000+0 0 930 2 25867 062.0737 088.4727 6287550 283.3847 354.3138 00.37804109 2404 ____________________________________________________________________ These 2-Line ...Continue Reading

Current TLEs

July 25th 2007 PDT

HST 1 20580U 90037B 07204.66305984 .00000309 00000-0 11133-4 0 9229 2 20580 028.4693 312.2547 0003846 128.5007 231.5926 15.00262870745440 ISS (ZARYA) 1 25544U 98067A 07206.48950132 .00011660 00000-0 77548-4 0 6443 2 25544 051.6326 265.8760 0009715 162.2512 285.7378 15.75923727496827 CXO 1 25867U 99040B 07207.29166667 .00000250 00000-0 00000+0 0 930 2 25867 062.0737 088.4727 6287550 283.3847 354.3138 00.37804109 2404 ____________________________________________________________________ These 2-Line ...Continue Reading

Current TLEs

July 24th 2007 PDT

HST 1 20580U 90037B 07204.66305984 .00000309 00000-0 11133-4 0 9229 2 20580 028.4693 312.2547 0003846 128.5007 231.5926 15.00262870745440 ISS (ZARYA) 1 25544U 98067A 07205.34896912 -.00044326 00000-0 -27716-3 0 6383 2 25544 051.6291 271.7479 0010046 158.4066 294.6488 15.75863739496648 CXO 1 25867U 99040B 07202.00000000 .00000212 00000-0 00000+0 0 929 2 25867 062.0469 088.5538 6277647 283.5062 353.8291 00.37804734 2389 ____________________________________________________________________ These 2-Line ...Continue Reading

Current TLEs

July 23rd 2007 PDT

HST 1 20580U 90037B 07203.53214910 .00000296 00000-0 10069-4 0 9213 2 20580 028.4692 319.6294 0003719 117.5848 242.5117 15.00262378745277 ISS (ZARYA) 1 25544U 98067A 07204.47832176 .00011861 00000-0 69820-4 0 6343 2 25544 051.6315 276.2414 0011421 093.7731 092.0577 15.78673057496501 CXO 1 25867U 99040B 07202.00000000 .00000212 00000-0 00000+0 0 929 2 25867 062.0469 088.5538 6277647 283.5062 353.8291 00.37804734 2389 ____________________________________________________________________ These 2-Line ...Continue Reading

Current TLEs

July 22nd 2007 PDT

HST 1 20580U 90037B 07201.73599706 .00000315 00000-0 11549-4 0 9207 2 20580 028.4691 331.3427 0003549 100.3012 259.8082 15.00262010745005 ISS (ZARYA) 1 25544U 98067A 07203.46511574 .00009647 00000-0 57603-4 0 6285 2 25544 051.6346 281.4832 0011536 090.4423 093.2531 15.78641261496343 CXO 1 25867U 99040B 07202.00000000 .00000212 00000-0 00000+0 0 929 2 25867 062.0469 088.5538 6277647 283.5062 353.8291 00.37804734 2389 ____________________________________________________________________ These 2-Line ...Continue Reading

Current TLEs

July 21st 2007 PDT

HST 1 20580U 90037B 07201.73599706 .00000315 00000-0 11549-4 0 9207 2 20580 028.4691 331.3427 0003549 100.3012 259.8082 15.00262010745005 ISS (ZARYA) 1 25544U 98067A 07202.43804757 .00066826 00000-0 37383-3 0 6249 2 25544 051.6337 286.7911 0011603 085.4570 017.3812 15.78622579496183 CXO 1 25867U 99040B 07202.00000000 .00000212 00000-0 00000+0 0 929 2 25867 062.0469 088.5538 6277647 283.5062 353.8291 00.37804734 2389 ____________________________________________________________________ These 2-Line ...Continue Reading

Current TLEs

July 20th 2007 PDT

HST 1 20580U 90037B 07200.53856060 .00000301 00000-0 10506-4 0 9198 2 20580 028.4682 339.1640 0003412 086.0605 274.0365 15.00261546744820 ISS (ZARYA) 1 25544U 98067A 07201.50240741 .00014877 00000-0 84550-4 0 6173 2 25544 051.6352 291.6319 0009060 084.7414 096.0395 15.79228387496034 CXO 1 25867U 99040B 07202.00000000 .00000212 00000-0 00000+0 0 929 2 25867 062.0469 088.5538 6277647 283.5062 353.8291 00.37804734 2389 ____________________________________________________________________ These 2-Line ...Continue Reading
  • This mailing list is a public mailing list - anyone may join or leave, at any time.
  • This mailing list is announce-only.

International Space Station (ISS) / Hubble Space Telescope (HST) / Chandra X-Ray Observatory Orbital Data via EMAIL

Privacy Policy:

Private list